#timestamp,LO_Frequency,Hit 
1498680015.4,286048499.6,N
1498680035.2,286048497.5,N
1498680055.0,286048497.4,N
1498680055.9,286048497.4,N
1498680075.8,286048500.2,N
1498680095.6,286048497.6,N
1498680115.4,286048497.7,N
1498680135.3,286048499.6,N
1498680155.1,286048499.5,N
1498680175.8,286048500.1,N
1498680195.7,286048500.0,N
1498680215.5,286048499.1,N
1498680235.3,286048501.5,N
1498680255.2,286048500.4,N
1498680275.0,286048499.8,N
1498680275.9,286048499.8,N
1498680295.7,286048499.2,N
1498680315.6,286048500.1,N
1498680335.4,286048499.8,N
1498680355.2,286048499.6,N
1498680375.1,286048500.3,N
1498680376.0,286048500.3,N
1498680395.8,286048500.4,N
1498680415.6,286048499.7,N
1498680435.5,286048499.6,N
1498680455.3,286048499.8,N
1498680475.1,286048497.5,N
1498680495.9,286048497.3,N
1498680515.7,286048498.6,N
1498680535.5,286048497.6,N
1498680555.4,286048499.9,N
1498680575.2,286048500.2,N
1498680595.0,286048497.3,N
1498680595.9,286048497.3,N
1498680615.8,286048497.4,N
1498680635.6,286048500.2,N
1498680655.4,286048498.9,N
1498680675.3,286048499.6,N
1498680695.1,286048499.1,N
1498680715.8,286048500.7,N
1498680735.7,286048501.2,N
1498680755.5,286048499.0,N
1498680775.3,286048498.9,N
1498680795.2,286048497.6,N
1498680815.0,286048498.2,N
1498680815.9,286048498.2,N
1498680835.7,286048497.8,N
1498680855.6,286048500.0,N
1498680875.4,286048498.9,N
1498680895.2,286048498.9,N
1498680915.1,286048499.8,N
1498680916.0,286048499.8,N
1498680935.8,286048501.9,N
1498680955.6,286048501.5,N
1498680975.5,286048501.3,N
1498680995.3,286048501.6,N
1498681015.1,286048502.0,N
1498681035.9,286048499.0,N
1498681055.7,286048499.3,N
1498681075.5,286048500.7,N
1498681095.4,286048501.5,N
1498681115.2,286048499.3,N
1498681135.0,286048501.8,N
1498681135.9,286048501.8,N
1498681155.8,286048501.5,N
1498681175.6,286048501.2,N
1498681195.4,286048501.2,N
1498681215.3,286048501.3,N
1498681235.1,286048502.0,N
1498681255.8,286048501.9,N
1498681275.7,286048501.2,N
1498681295.5,286048501.2,N
1498681315.3,286048499.0,N
1498681335.2,286048499.1,N
1498681355.0,286048499.1,N
1498681355.9,286048499.1,N
1498681375.7,286048501.1,N
1498681395.6,286048502.0,N
1498681415.4,286048501.5,N
1498681435.2,286048501.3,N
1498681455.1,286048500.9,N
1498681456.0,286048500.9,N
1498681475.8,286048502.9,N
1498681495.6,286048502.3,N
1498681515.5,286048502.5,N
1498681535.3,286048502.8,N
1498681555.1,286048502.3,N
1498681575.9,286048503.0,N
1498681595.7,286048501.0,N
1498681615.5,286048501.4,N
1498681635.4,286048501.7,N
1498681655.2,286048500.7,N
1498681675.0,286048503.6,N
1498681675.9,286048503.6,N
1498681695.8,286048502.9,N
1498681715.6,286048503.0,N
1498681735.4,286048503.6,N
1498681755.3,286048501.1,N
1498681775.1,286048503.6,N
1498681795.8,286048500.7,N
1498681815.7,286048503.1,N
1498681835.5,286048503.6,N
1498681855.3,286048500.6,N
1498681875.2,286048502.5,N
1498681895.0,286048505.2,N
1498681895.9,286048505.2,N
1498681915.7,286048502.4,N
1498681935.6,286048502.3,N
1498681955.4,286048502.4,N
1498681975.2,286048504.1,N
1498681995.1,286048504.6,N
1498681996.0,286048504.6,N
1498682015.8,286048505.0,N
1498682035.6,286048502.5,N
1498682055.5,286048502.5,N
1498682075.3,286048504.1,N
1498682095.1,286048506.2,N
1498682115.9,286048503.9,N
1498682135.7,286048506.4,N
1498682155.5,286048504.1,N
1498682175.4,286048504.0,N
1498682195.2,286048502.1,N
1498682215.0,286048504.3,N
1498682215.9,286048504.3,N
1498682235.8,286048502.6,N
1498682255.6,286048502.5,N
1498682275.4,286048506.7,N
1498682295.3,286048504.3,N
1498682315.1,286048506.8,N
1498682335.8,286048508.3,N
1498682355.7,286048507.8,N
1498682375.5,286048505.9,N
1498682395.3,286048506.3,N
1498682415.2,286048506.7,N
1498682435.0,286048505.9,N
1498682435.9,286048505.9,N
1498682455.7,286048504.2,N
1498682475.6,286048506.6,N
1498682495.4,286048506.7,N
1498682515.2,286048505.6,N
1498682535.1,286048506.4,N
1498682536.0,286048506.4,N
1498682555.8,286048505.8,N
1498682575.6,286048507.9,N
1498682595.5,286048508.3,N
1498682615.3,286048505.4,N
1498682635.1,286048505.6,N
1498682655.9,286048506.0,N
1498682675.7,286048505.4,N
1498682695.5,286048507.8,N
1498682715.4,286048505.8,N
1498682735.2,286048504.4,N
1498682755.0,286048506.0,N
1498682755.9,286048506.0,N
1498682775.8,286048503.9,N
1498682795.6,286048503.7,N
1498682815.4,286048505.5,N
1498682835.3,286048505.7,N
1498682855.1,286048505.3,N
1498682875.8,286048505.9,N
1498682895.7,286048506.6,N
1498682915.5,286048506.5,N
1498682935.3,286048506.6,N
1498682955.2,286048506.3,N
1498682975.0,286048506.7,N
1498682975.9,286048506.7,N
1498682995.7,286048508.4,N
1498683015.6,286048506.1,N
1498683035.4,286048505.7,N
1498683055.2,286048506.3,N
1498683075.1,286048507.7,N
1498683076.0,286048507.7,N
1498683095.8,286048506.7,N
1498683115.6,286048506.4,N
1498683135.5,286048505.6,N
1498683155.3,286048505.8,N
1498683175.1,286048506.0,N
1498683195.9,286048506.2,N
1498683215.7,286048504.4,N
1498683235.5,286048504.0,N
1498683255.4,286048506.6,N
1498683275.2,286048503.7,N
1498683295.0,286048503.7,N
1498683295.9,286048503.7,N
1498683315.8,286048505.8,N
1498683335.6,286048504.5,N
1498683355.4,286048502.4,N
1498683375.3,286048503.0,N
1498683395.1,286048504.4,N
1498683415.8,286048502.6,N
1498683435.7,286048504.8,N
1498683455.5,286048506.0,N
1498683475.3,286048502.2,N
1498683495.2,286048504.6,N
1498683515.0,286048504.0,N
1498683515.9,286048504.0,N
1498683535.7,286048504.8,N
1498683555.6,286048506.6,N
1498683575.4,286048506.5,N
1498683595.2,286048508.4,N
